This demonstration page uses our WeatherBlox Daily Observations layout. Learn more.

Left ArrowRight Arrow

40.92501, -98.34201

Hourly Observations for May 24, 2020

Temp ( °F °C ) Dew Point ( °F °C ) Humidity (%) Winds ( mph kmh ) Pressure ( in mb ) Visibility ( mi km ) Precip ( " mm )
12:53 am 00:53 Mostly Clear 69 20.6 64 17.8 84 84 SE 15 24 29.68 1005 10 16 0.00 0.00
1:53 am 01:53 Clear 70 21.1 64 17.8 82 82 SSE 18 30 29.66 1005 10 16 0.00 0.00
2:26 am 02:26 Mostly Clear with Light Rain 64 17.8 57 13.9 78 78 WNW 30 48 29.74 1007 7 11 0.00 0.00
2:32 am 02:32 Mostly Cloudy with Nearby Thunderstorms 60 15.6 55 12.8 84 84 NW 39 63 29.76 1008 5 8 0.00 0.00
2:46 am 02:46 Cloudy with Strong Thunderstorms 58 14.4 55 12.8 90 90 NNW 23 37 29.77 1008 2 3 0.00 0.00
2:53 am 02:53 Cloudy with Strong Thunderstorms 58 14.4 55 12.8 90 90 NNW 22 35 29.78 1008 2 2 0.05 1.27
3:02 am 03:02 Cloudy with Strong Thunderstorms 58 14.4 55 12.8 90 90 NNW 23 37 29.77 1008 2 2 0.11 2.79
3:24 am 03:24 Cloudy with Strong Thunderstorms 58 14.4 55 12.8 90 90 N 16 26 29.76 1008 3 5 0.33 8.38
3:32 am 03:32 Cloudy with Strong Thunderstorms 58 14.4 55 12.8 90 90 N 14 22 29.76 1008 2 3 0.43 10.92
3:40 am 03:40 Cloudy with Nearby Thunderstorms 58 14.4 55 12.8 90 90 N 13 20 29.75 1007 7 11 0.49 12.45
3:53 am 03:53 Cloudy 59 15 55 12.8 87 87 NE 9 15 29.76 1008 10 16 0.49 12.45
4:53 am 04:53 Clear 57 13.9 54 12.2 90 90 S 3 6 29.75 1007 10 16 0.00 0.00
5:53 am 05:53 Mostly Cloudy 57 13.9 54 12.2 90 90 Calm 29.76 1008 10 16 0.00 0.00
6:53 am 06:53 Cloudy 58 14.4 55 12.8 90 90 Calm 29.80 1009 10 16 0.00 0.00
7:08 am 07:08 Cloudy 59 15 55 12.8 87 87 ESE 3 6 29.79 1009 10 16 0.00 0.00
7:17 am 07:17 Cloudy 59 15 55 12.8 87 87 SE 6 9 29.79 1009 10 16 0.00 0.00
7:42 am 07:42 Mostly Cloudy 59 15 56 13.3 90 90 S 3 6 29.80 1009 10 16 0.00 0.00
7:53 am 07:53 Mostly Cloudy 59 15 56 13.3 90 90 Calm 29.81 1009 10 16 0.00 0.00
8:53 am 08:53 Partly Cloudy 63 17.2 57 13.9 81 81 WNW 9 15 29.82 1010 10 16 0.00 0.00
9:14 am 09:14 Mostly Cloudy 63 17.2 57 13.9 81 81 WNW 12 19 29.81 1009 10 16 0.00 0.00
9:53 am 09:53 Mostly Cloudy 64 17.8 57 13.9 78 78 NNW 12 19 29.82 1010 10 16 0.00 0.00
10:53 am 10:53 Cloudy 63 17.2 56 13.3 78 78 N 13 20 29.83 1010 10 16 0.00 0.00
11:53 am 11:53 Cloudy 65 18.3 57 13.9 76 76 NNE 13 20 29.85 1011 10 16 0.00 0.00
12:53 pm 12:53 Mostly Cloudy 68 20 58 14.4 70 70 N 14 22 29.82 1010 10 16 0.00 0.00
1:07 pm 13:07 Partly Cloudy 69 20.6 60 15.6 73 73 NNE 13 20 29.79 1009 10 16 0.00 0.00
1:53 pm 13:53 Mostly Sunny 71 21.7 60 15.6 68 68 NNE 13 20 29.80 1009 10 16 0.00 0.00
2:17 pm 14:17 Mostly Cloudy 71 21.7 60 15.6 68 68 NNE 10 17 29.77 1008 10 16 0.00 0.00
2:53 pm 14:53 Mostly Cloudy 73 22.8 61 16.1 66 66 NE 8 13 29.82 1010 10 16 0.00 0.00
3:05 pm 15:05 Mostly Cloudy 71 21.7 60 15.6 68 68 ENE 8 13 29.77 1008 10 16 0.00 0.00
3:34 pm 15:34 Cloudy 71 21.7 61 16.1 71 71 E 6 9 29.76 1008 10 16 0.00 0.00
3:53 pm 15:53 Mostly Cloudy 71 21.7 61 16.1 71 71 ESE 6 9 29.81 1010 10 16 0.00 0.00
4:53 pm 16:53 Partly Cloudy 72 22.2 61 16.1 68 68 E 12 19 29.83 1010 10 16 0.00 0.00
5:53 pm 17:53 Cloudy 72 22.2 61 16.1 68 68 ENE 8 13 29.83 1010 10 16 0.00 0.00
6:53 pm 18:53 Cloudy 72 22.2 61 16.1 68 68 NNE 13 20 29.82 1010 10 16 0.00 0.00
7:53 pm 19:53 Cloudy 70 21.1 60 15.6 71 71 NNE 15 24 29.82 1010 10 16 0.00 0.00
8:53 pm 20:53 Mostly Cloudy 68 20 60 15.6 76 76 NNE 12 19 29.85 1011 10 16 0.00 0.00
9:29 pm 21:29 Cloudy 67 19.4 60 15.6 79 79 NNE 14 22 29.80 1009 10 16 0.00 0.00
9:53 pm 21:53 Cloudy 67 19.4 60 15.6 79 79 NNE 13 20 29.83 1010 10 16 0.00 0.00
10:53 pm 22:53 Cloudy 66 18.9 59 15 78 78 NNE 16 26 29.84 1011 10 16 0.00 0.00
11:53 pm 23:53 Cloudy 65 18.3 58 14.4 78 78 NE 17 28 29.83 1010 10 16 0.00 0.00

Powered by AerisWeather